Regional Weather Roundup
Issued by NWS

Home | Current Version | Previous Version | Graphics & Text | Print | Product List | Glossary On
Versions: 1 2 3 4 5 6 7 8 9 10 11 12 13 14 15 16 17 18 19 20 21 22 23 24 25 26 27 28 29 30 31 32 33 34 35 36 37 38 39 40 41 42 43 44 45 46 47 48 49 50
000
ASUS43 KLMK 021102
RWRKY
KENTUCKY REGIONAL WEATHER ROUNDUP
NATIONAL WEATHER SERVICE LOUISVILLE KY
700 AM EDT THU OCT 02 2014

NOTE "FAIR" INDICATES FEW OR NO CLOUDS BELOW 12,000 FEET
WITH NO SIGNIFICANT WEATHER AND/OR OBSTRUCTIONS TO VISIBILITY.

KYZ001>023-026-027-061>063-070>075-021200-
WESTERN AND SOUTH CENTRAL KENTUCKY

CITY           SKY/WX    TMP DP  RH WIND       PRES   REMARKS
PADUCAH        CLOUDY    71  60  68 S5        29.92R
HENDERSON      NOT AVBL
OWENSBORO      FAIR      66  57  72 S7        29.96R
HOPKINSVILLE   CLOUDY    68  60  77 S6        29.97R
BOWLING GREEN  PTCLDY    58  54  86 CALM      30.00R
GLASGOW        CLEAR     63  56  79 CALM      30.01R
$$

KYZ024-025-028>034-038-045-046-053-021200-
NORTH CENTRAL KENTUCKY

CITY           SKY/WX    TMP DP  RH WIND       PRES   REMARKS
LOUISVILLE/SDF MOCLDY    63  57  81 SE5       29.99R
LOUISVILLE/LOU CLEAR     62  57  83 CALM      30.00R
FORT KNOX      CLEAR     58  55  88 CALM      29.99R
$$

KYZ035>037-039>044-047>052-055>060-089>105-021200-
NORTHEAST KENTUCKY

CITY           SKY/WX    TMP DP  RH WIND       PRES   REMARKS
LEXINGTON      CLEAR     64  56  75 SE7       30.03R
COVINGTON      PTCLDY    61  56  83 SE6       30.00F
FRANKFORT      CLEAR     60  56  86 SE3       30.01R
$$

KYZ054-064>069-076>088-106>120-021200-
SOUTHEAST KENTUCKY

CITY           SKY/WX    TMP DP  RH WIND       PRES   REMARKS
JACKSON        CLEAR     60  55  83 S3        30.07R
LONDON         MOCLDY    57  54  89 CALM      30.07R
SOMERSET       CLEAR     55  55 100 CALM      30.07R FOG
MIDDLESBORO    FOG       53  53 100 CALM      30.12R VSB 1/4
MONTICELLO     SUNNY     56  55  96 CALM      30.07R
$$



USA.gov is the U.S. government's official web portal to all federal, state and local government web resources and services.